"Time","Temp","Dewpoint","Humidity","Pressure","Direction","Speed","Gust","Precip","PrecipRate"
"00:04:57","66.5","63.2","89","30.07","188","0","0","0.00","0.00"
"00:09:57","66.3","63.2","89.6","30.07","188","0","0","0.00","0.00"
"00:14:57","66.2","63.2","90","30.07","188","0","0","0.00","0.00"
"00:19:56","66.1","63.1","90","30.07","188","0","0","0.00","0.00"
"00:24:55","65.9","63","90.1","30.07","188","0","0","0.00","0.00"
"00:29:58","65.8","63.1","91","30.07","188","0","0","0.00","0.00"
"00:34:58","65.8","63.1","91","30.07","188","0","0","0.00","0.00"
"00:39:58","65.6","62.9","91","30.07","188","0","0","0.00","0.00"
"00:44:57","65.5","62.8","91","30.08","188","0","0","0.00","0.00"
"00:49:56","65.5","62.8","91","30.08","188","0","0","0.00","0.00"
"00:54:56","65.4","62.9","91.5","30.08","188","0","0","0.00","0.00"
"00:59:59","65.4","62.7","91","30.08","188","0","0","0.00","0.00"
"01:04:57","65.2","62.7","91.7","30.08","188","0","0","0.00","0.00"
"01:09:57","65.1","62.7","92","30.08","188","0","0","0.00","0.00"
"01:14:57","65","62.6","92","30.08","188","0","0","0.00","0.00"
"01:19:56","64.9","62.5","92","30.08","188","0","0","0.00","0.00"
"01:24:56","65","62.6","92","30.08","188","0","0","0.00","0.00"
"01:29:59","65","62.6","92","30.09","188","0","0","0.00","0.00"
"01:34:58","65","62.6","92","30.09","188","0","0","0.00","0.00"
"01:39:58","64.8","62.4","92","30.09","188","0","0","0.00","0.00"
"01:44:57","64.7","62.3","92.1","30.09","188","0","0","0.00","0.00"
"01:49:56","64.5","62.4","93","30.09","188","0","0","0.00","0.00"
"01:54:56","64.4","62.3","92.8","30.09","188","0","0","0.00","0.00"
"01:59:59","64.3","62.1","92.7","30.09","188","0","0","0.00","0.00"
"02:04:58","64.2","62.1","93","30.09","188","0","0","0.00","0.00"
"02:09:57","64.2","62.1","93","30.09","188","0","0","0.00","0.00"
"02:14:57","64.2","62.3","93.9","30.09","188","0","0","0.00","0.00"
"02:19:57","64.2","62.4","94","30.09","188","0","0","0.00","0.00"
"02:24:56","64.1","62.2","93.6","30.09","188","0","0","0.00","0.00"
"02:29:59","64","61.9","93","30.09","188","0","0","0.00","0.00"
"02:34:58","63.8","61.7","93","30.09","188","0","0","0.00","0.00"
"02:39:58","63.7","61.7","93.3","30.09","188","0","0","0.00","0.00"
"02:44:57","63.6","61.8","94","30.09","188","0","0","0.00","0.00"
"02:49:56","63.5","61.7","94","30.09","188","0","0","0.00","0.00"
"02:54:56","63.5","61.7","94","30.09","188","0","0","0.00","0.00"
"02:59:59","63.4","61.7","94.4","30.10","188","0","0","0.00","0.00"
"03:04:58","63.5","62","95","30.10","188","0","0","0.00","0.00"
"03:09:58","63.6","62.1","95","30.10","188","0","0","0.00","0.00"
"03:14:59","63.4","61.9","95","30.10","188","0","0","0.00","0.00"
"03:19:58","63.4","61.7","94.3","30.10","188","0","0","0.00","0.00"
"03:24:57","63.4","61.9","95","30.10","188","0","0","0.00","0.00"
"03:29:57","63.4","61.9","95","30.11","188","0","0","0.00","0.00"
"03:34:56","63.2","61.5","94.1","30.11","188","0","0","0.00","0.00"
"03:39:56","63.1","61.6","95","30.11","188","0","0","0.00","0.00"
"03:44:59","63.1","61.6","95","30.11","189","0.3","2.4","0.00","0.00"
"03:49:58","63.2","61.7","95","30.11","189","0.7","2.4","0.00","0.00"
"03:54:56","63.2","61.7","95","30.11","189","0.4","2.4","0.00","0.00"
"03:59:59","63.1","61.6","95","30.11","189","0.1","1.2","0.00","0.00"
"04:04:58","63.1","61.6","95","30.11","189","0.1","1.2","0.00","0.00"
"04:09:57","62.9","61.4","95","30.11","188","0.2","2.4","0.00","0.00"
"04:14:58","62.7","61.2","95","30.12","188","0.4","2.4","0.00","0.00"
"04:19:56","62.7","61.2","95","30.12","188","0.5","2.4","0.00","0.00"
"04:24:56","62.7","61.2","95","30.12","189","0.7","2.4","0.00","0.00"
"04:29:59","62.8","61.3","95","30.12","189","0.2","2.3","0.00","0.00"
"04:34:58","62.7","61.2","95","30.12","189","0","1.2","0.00","0.00"
"04:39:58","62.6","61.1","95","30.12","189","0","0","0.00","0.00"
"04:44:57","62.5","61","95","30.13","189","0","1.2","0.00","0.00"
"04:49:56","62.5","61","95","30.13","189","0","1.2","0.00","0.00"
"04:54:59","62.6","61.4","96","30.13","189","0.2","1.2","0.00","0.00"
"04:59:59","62.6","61.4","96","30.13","189","0","0","0.00","0.00"
"05:04:57","62.5","61","95.1","30.13","189","0","0","0.00","0.00"
"05:09:57","62.5","61.3","96","30.13","189","0","0","0.00","0.00"
"05:14:57","62.5","61.3","96","30.14","189","0.4","2.4","0.00","0.00"
"05:19:52","62.5","61.3","96","30.14","189","0","0","0.00","0.00"
"05:24:59","62.5","61.3","96","30.14","189","0.1","1.2","0.00","0.00"
"05:29:59","62.5","61.3","96","30.14","189","0.4","2.4","0.00","0.00"
"05:34:58","62.6","61.3","96","30.14","189","0.1","1.2","0.00","0.00"
"05:38:23","62.5","61.3","96","30.14","189","0","0","0.00","0.00"
"05:44:57","62.4","61.2","96","30.15","189","0.1","1.2","0.00","0.00"
"05:49:56","62.4","61.2","96","30.15","189","0","0","0.00","0.00"
"05:54:56","62.3","61.1","96","30.15","189","0","0","0.00","0.00"
"05:59:59","62.2","61","96","30.15","189","0","0","0.00","0.00"
"06:04:58","62.1","60.9","96","30.15","189","0","0","0.00","0.00"
"06:09:58","62.2","61","96","30.15","189","0","0","0.00","0.00"
"06:14:59","62.2","61","96","30.16","189","0","0","0.00","0.00"
"06:19:58","62.1","60.9","96","30.16","189","0","0","0.00","0.00"
"06:24:57","62.1","60.9","96","30.16","189","0","0","0.00","0.00"
"06:29:56","62","60.8","96","30.17","189","0","0","0.00","0.00"
"06:34:59","61.9","60.7","96","30.17","189","0","0","0.00","0.00"
"06:39:56","61.8","60.6","96","30.17","189","0","0","0.00","0.00"
"06:44:56","61.7","60.5","96","30.17","189","0","0","0.00","0.00"
"06:49:59","61.6","60.4","96","30.17","189","0","0","0.00","0.00"
"06:54:59","61.5","60.3","96","30.17","189","0","0","0.00","0.00"
"06:59:58","61.5","60.3","96","30.18","189","0","0","0.00","0.00"
"07:04:56","61.5","60.1","95.1","30.18","329","0.7","4.8","0.00","0.00"
"07:09:59","61.6","60.2","95","30.18","330","0.3","3.6","0.00","0.00"
"07:14:56","61.7","60.3","95","30.19","329","0.1","2.4","0.00","0.00"
"07:19:58","61.9","60.2","94.2","30.19","338","1.4","6","0.00","0.00"
"07:24:57","62.1","60.3","93.9","30.19","337","1.7","5.8","0.00","0.00"
"07:29:59","62.3","60.3","93","30.20","336","1.4","3.6","0.00","0.00"
"07:34:58","62.7","60.4","92.5","30.20","336","0.7","3.6","0.00","0.00"
"07:39:58","63.1","60.5","91.4","30.20","336","1.5","4.8","0.00","0.00"
"07:44:56","63.6","60.8","90.7","30.20","336","1.5","4.8","0.00","0.00"
"07:49:59","64.2","60.8","88.8","30.20","336","1.1","3.6","0.00","0.00"
"07:54:58","64.6","60.9","87.8","30.20","336","0.3","3.5","0.00","0.00"
"07:59:56","65.1","61.1","86.9","30.21","336","0.6","2.4","0.00","0.00"
"08:04:59","65.8","61.3","85.5","30.21","336","0.6","3.6","0.00","0.00"
"08:09:58","66.5","61.4","83.7","30.21","336","1.2","3.6","0.00","0.00"
"08:14:58","67","61.2","81.5","30.21","336","1.8","6","0.00","0.00"
"08:19:56","67.5","61.5","81.1","30.21","340","0.4","6","0.00","0.00"
"08:24:59","68","61.3","79.3","30.21","348","1.3","5.8","0.00","0.00"
"08:29:57","68.4","61.4","78.3","30.21","348","0.4","3.6","0.00","0.00"
"08:34:57","68.8","61.4","77.1","30.21","344","0.4","3.6","0.00","0.00"
"08:39:56","69.1","61","75.5","30.21","345","0.6","3.6","0.00","0.00"
"08:44:59","69.3","60.9","74.6","30.21","359","0.5","3.6","0.00","0.00"
"08:49:58","69.4","60.7","73.6","30.21","5","0.4","2.4","0.00","0.00"
"08:54:56","69.6","60.5","72.7","30.21","359","1.3","6","0.00","0.00"
"08:59:58","69.8","60.4","71.8","30.22","5","0.7","4.6","0.00","0.00"
"09:04:57","70.2","61","72.8","30.22","5","0.5","2.4","0.00","0.00"
"09:09:56","70.8","61.4","72.4","30.22","353","0.9","6","0.00","0.00"
"09:14:56","71.3","61.2","70.4","30.22","2","0.7","2.4","0.00","0.00"
"09:19:58","71.8","61.4","69.8","30.22","339","2.2","7.2","0.00","0.00"
"09:24:57","72.2","61.5","68.9","30.22","332","1.7","4.8","0.00","0.00"
"09:29:59","72.6","60.9","66.9","30.22","329","1","3.6","0.00","0.00"
"09:34:58","72.6","60.6","66","30.21","337","1.6","6","0.00","0.00"
"09:39:58","72.8","60.9","66.3","30.21","329","1.4","6","0.00","0.00"
"09:44:56","73.1","61","65.7","30.22","335","2","7.2","0.00","0.00"
"09:49:58","73.4","61.2","65.6","30.22","348","2.1","6","0.00","0.00"
"09:54:57","73.6","61","64.6","30.22","345","2","6","0.00","0.00"
"09:59:56","73.5","60.9","64.9","30.22","342","1.2","4.6","0.00","0.00"
"10:04:58","73.5","61.3","65.7","30.22","340","1","4.8","0.00","0.00"
"10:09:56","73.9","61.6","65.6","30.22","338","1.1","4.6","0.00","0.00"
"10:14:56","74.4","62.3","66","30.22","333","0.4","3.5","0.00","0.00"
"10:19:59","74.8","61.9","64.1","30.22","89","1.4","4.8","0.00","0.00"
"10:24:58","75.2","62.2","64.1","30.22","347","0.8","3.5","0.00","0.00"
"10:29:56","75.8","62.2","62.7","30.22","262","0.7","4.8","0.00","0.00"
"10:34:59","76.1","62.2","62.2","30.22","15","0.1","1.2","0.00","0.00"
"10:39:59","76.3","62.5","62.3","30.22","332","0","1.2","0.00","0.00"
"10:44:57","76.4","62.7","62.7","30.22","332","0","0","0.00","0.00"
"10:49:56","76.3","63","63.4","30.22","331","0","2.4","0.00","0.00"
"10:54:59","76.4","62.4","61.9","30.22","97","0.7","3.6","0.00","0.00"
"10:59:57","76.4","63.1","63.6","30.23","177","0.2","3.5","0.00","0.00"
"11:04:59","76.9","64","64.5","30.23","171","0.6","3.6","0.00","0.00"
"11:09:58","77.6","64","63","30.23","80","0.6","4.8","0.00","0.00"
"11:14:58","78.2","64.2","62.2","30.23","343","1.1","3.6","0.00","0.00"
"11:19:57","78.4","63.8","61","30.22","51","1.2","3.6","0.00","0.00"
"11:24:59","78.6","64.4","61.9","30.22","357","1.5","6","0.00","0.00"
"11:29:59","79","64.6","61.5","30.22","346","2.6","8.4","0.00","0.00"
"11:34:59","79.2","64.6","61.1","30.22","101","0.9","4.6","0.00","0.00"
"11:39:56","79.6","64.9","60.7","30.22","98","1","4.8","0.00","0.00"
"11:44:56","79.8","64.1","58.8","30.22","121","1.2","10.8","0.00","0.00"
"11:49:56","79.9","64.5","59.3","30.21","113","0.6","2.4","0.00","0.00"
"11:54:56","79.9","63.8","57.9","30.21","106","0.7","2.4","0.00","0.00"
"11:59:56","80","64.5","59.3","30.21","115","1.6","4.8","0.00","0.00"
"12:04:59","80.3","64.4","58.4","30.21","199","0.9","4.6","0.00","0.00"
"12:09:56","80.5","64","57.2","30.21","255","1.2","6","0.00","0.00"
"12:14:58","80.6","63.7","56.6","30.21","331","1.1","5.8","0.00","0.00"
"12:19:57","80.6","63.9","56.8","30.21","330","0.3","2.4","0.00","0.00"
"12:24:49","80.8","64.6","58","30.21","325","1.1","3.6","0.00","0.00"
"12:29:57","81.4","65.2","58.1","30.21","269","0.8","3.6","0.00","0.00"
"12:34:57","81.7","65.2","57.4","30.21","284","0.8","4.8","0.00","0.00"
"12:39:58","81.8","64.8","56.5","30.21","348","1.4","4.6","0.00","0.00"
"12:44:58","81.9","65.3","57.3","30.21","71","0.9","3.6","0.00","0.00"
"12:49:57","82.2","65.7","57.5","30.21","214","1.4","4.8","0.00","0.00"
"12:54:57","82.6","65.5","56.4","30.21","248","0.8","4.8","0.00","0.00"
"12:59:57","83","65.1","54.7","30.21","127","1.9","6","0.00","0.00"
"13:04:57","83.2","64.8","53.9","30.20","121","0.8","4.6","0.00","0.00"
"13:09:58","83.3","65.2","54.7","30.20","55","1.5","4.8","0.00","0.00"
"13:14:59","83.4","64.7","53.4","30.20","86","2.9","10.8","0.00","0.00"
"13:19:59","83.4","65.5","54.9","30.20","106","1.1","10.4","0.00","0.00"
"13:24:59","83.7","64.4","52.3","30.20","43","1","4.8","0.00","0.00"
"13:29:59","84","64.9","52.9","30.20","345","1.3","4.6","0.00","0.00"
"13:34:58","84.4","66.4","54.9","30.20","329","1.8","4.8","0.00","0.00"
"13:39:59","84.9","65.6","52.4","30.20","80","1.4","4.8","0.00","0.00"
"13:44:59","85","65","51.3","30.20","150","1.3","6","0.00","0.00"
"13:49:59","84.9","65.4","52.1","30.20","150","0.6","2.4","0.00","0.00"
"13:54:58","84.7","64.3","50.7","30.20","88","1.8","6","0.00","0.00"
"13:59:58","84.8","65.8","52.9","30.20","5","1.1","3.6","0.00","0.00"
"14:04:57","85.3","66.2","52.9","30.20","29","1.4","4.8","0.00","0.00"
"14:09:58","85.9","66.2","52","30.20","341","1.5","4.8","0.00","0.00"
"14:14:59","86.2","65.2","49.7","30.20","0","1.1","6","0.00","0.00"
"14:19:59","85.7","64.2","48.7","30.19","118","2.8","6","0.00","0.00"
"14:24:59","85.5","65.4","51.2","30.19","3","2.1","6","0.00","0.00"
"14:29:59","85.6","64.5","49.5","30.19","209","2.2","6","0.00","0.00"
"14:34:58","85.9","66","51.6","30.19","208","0.6","3.5","0.00","0.00"
"14:39:56","86.2","66.2","51.5","30.19","132","2.1","7.2","0.00","0.00"
"14:44:59","86.4","66.6","51.8","30.19","119","0.7","3.6","0.00","0.00"
"14:49:59","86.7","66.3","50.8","30.19","108","1.4","4.8","0.00","0.00"
"14:54:59","87.2","66","49.5","30.19","98","0.8","3.6","0.00","0.00"
"14:59:59","87.5","66","49","30.19","28","1.4","6","0.00","0.00"
"15:04:58","87.8","66.7","49.8","30.18","112","2","7.2","0.00","0.00"
"15:09:58","87.8","66.2","48.8","30.18","136","1.5","4.8","0.00","0.00"
"15:14:59","87.4","65.8","48.9","30.18","314","0.5","4.6","0.00","0.00"
"15:19:47","86.8","65.1","48.7","30.18","71","0.6","4.8","0.00","0.00"
"15:24:55","86.1","64.8","49.2","30.18","126","0.4","4.6","0.00","0.00"
"15:29:59","86","65.1","49.8","30.18","126","1","4.8","0.00","0.00"
"15:34:59","86.4","65.7","50.2","30.17","161","1.6","8.4","0.00","0.00"
"15:39:56","87","65.4","48.7","30.17","199","3.1","8.1","0.00","0.00"
"15:44:56","87.6","65.6","48.1","30.17","162","3.7","9.6","0.00","0.00"
"15:49:56","87.7","65.2","47.4","30.17","135","1","3.6","0.00","0.00"
"15:54:59","87.1","64.3","46.8","30.17","153","1.7","7.2","0.00","0.00"
"15:59:59","86.5","64.3","47.6","30.17","165","1.1","3.6","0.00","0.00"
"16:04:59","85.9","65","49.7","30.17","166","2.6","7.2","0.00","0.00"
"16:09:59","85.4","64","48.9","30.17","151","2.4","7.2","0.00","0.00"
"16:14:56","85.1","64.6","50.3","30.17","150","1.2","3.6","0.00","0.00"
"16:19:56","84.9","64.7","50.9","30.17","150","1.9","4.8","0.00","0.00"
"16:24:56","84.8","64.9","51.4","30.17","150","1.9","6","0.00","0.00"
"16:29:56","85.1","65.1","51.4","30.17","143","1.6","4.8","0.00","0.00"
"16:34:56","85.2","64.6","50.2","30.17","139","0.6","4.8","0.00","0.00"
"16:39:57","85.1","63.9","49.2","30.17","142","1.7","4.6","0.00","0.00"
"16:44:57","85","64.4","50.3","30.17","143","1.3","3.6","0.00","0.00"
"16:49:57","84.8","64.7","51.1","30.17","140","0.7","3.6","0.00","0.00"
"16:54:57","84.6","64.8","51.7","30.17","139","1.2","4.8","0.00","0.00"
"16:59:57","84.5","65.3","52.7","30.17","139","0.3","3.5","0.00","0.00"
"17:04:56","84.9","65.7","52.7","30.17","130","0.7","3.6","0.00","0.00"
"17:09:57","85.4","66.3","52.9","30.17","42","0.3","3.6","0.00","0.00"
"17:14:59","85.8","66.1","52","30.17","113","1.7","6","0.00","0.00"
"17:19:59","86.1","65.7","50.8","30.17","146","1","3.6","0.00","0.00"
"17:24:59","86.2","66","51.2","30.17","168","1.3","6","0.00","0.00"
"17:29:59","86.2","65.5","50.1","30.17","180","0.5","2.3","0.00","0.00"
"17:34:56","86","65.4","50.4","30.17","171","1.3","3.6","0.00","0.00"
"17:39:56","85.7","65.5","51.1","30.17","165","1.4","4.8","0.00","0.00"
"17:44:56","85.4","65.2","51","30.17","143","1.7","4.8","0.00","0.00"
"17:49:56","85.1","65.1","51.3","30.17","120","1.1","2.4","0.00","0.00"
"17:54:56","85","65.5","52.2","30.17","120","0.2","2.4","0.00","0.00"
"17:59:56","85","65.6","52.3","30.17","120","0.3","2.4","0.00","0.00"
"18:04:59","85.2","65.5","52","30.17","120","1.7","3.6","0.00","0.00"
"18:09:56","85.3","65.5","51.7","30.17","120","0.7","3.5","0.00","0.00"
"18:14:57","85.2","65","51","30.18","120","1.4","3.6","0.00","0.00"
"18:19:57","84.9","65.4","52.3","30.18","120","0.7","3.5","0.00","0.00"
"18:24:57","84.6","65.5","52.8","30.18","122","0.5","4.8","0.00","0.00"
"18:29:57","84.3","65.5","53.3","30.18","122","0.3","2.4","0.00","0.00"
"18:34:56","83.9","65.5","54","30.18","121","0.7","3.6","0.00","0.00"
"18:39:58","83.4","65","54","30.18","121","0.9","4.8","0.00","0.00"
"18:44:58","83.2","64.8","54","30.18","121","2.3","4.8","0.00","0.00"
"18:49:57","83.2","64.8","54.1","30.18","121","1.3","4.6","0.00","0.00"
"18:54:58","83.1","65.5","55.3","30.18","122","0.2","1.2","0.00","0.00"
"18:59:58","83.1","65.5","55.5","30.18","122","0.3","2.4","0.00","0.00"
"19:04:57","83","65.6","55.9","30.17","122","0.7","2.4","0.00","0.00"
"19:09:58","82.9","65.5","55.9","30.17","122","0","1.2","0.00","0.00"
"19:14:57","82.7","65.5","56.2","30.17","70","0.3","2.4","0.00","0.00"
"19:19:57","82.5","65.2","56","30.17","113","0.6","2.4","0.00","0.00"
"19:24:58","82.3","65.2","56.5","30.17","113","1","2.4","0.00","0.00"
"19:29:58","82.1","65.3","56.8","30.18","113","0.4","3.6","0.00","0.00"
"19:34:58","81.8","65.3","57.4","30.18","113","0.2","1.2","0.00","0.00"
"19:39:56","81.4","65.4","58.4","30.18","113","0.2","2.4","0.00","0.00"
"19:44:56","81.1","65.4","59","30.18","113","0.1","2.4","0.00","0.00"
"19:49:57","80.7","65.5","60","30.18","113","0","1.2","0.00","0.00"
"19:54:57","80.4","65.3","60.2","30.18","113","0.3","1.2","0.00","0.00"
"19:59:57","80.1","65.2","60.4","30.18","113","0.2","1.2","0.00","0.00"
"20:04:57","79.8","65.2","61","30.18","113","0.1","1.2","0.00","0.00"
"20:09:58","79.6","65.1","61.4","30.18","113","0.2","1.2","0.00","0.00"
"20:14:56","79.3","65.1","62","30.18","113","0.4","4.8","0.00","0.00"
"20:19:56","79.1","65","62","30.18","114","0.4","4.6","0.00","0.00"
"20:24:56","78.9","65","62.7","30.18","114","0.4","3.6","0.00","0.00"
"20:29:59","78.6","64.9","63","30.19","114","0.1","2.3","0.00","0.00"
"20:34:58","78.4","65.1","63.8","30.19","114","0.1","1.2","0.00","0.00"
"20:39:59","78.1","65.3","64.8","30.19","114","0","0","0.00","0.00"
"20:44:58","77.7","65.1","65.2","30.20","114","0","0","0.00","0.00"
"20:49:57","77.4","65.1","66","30.20","114","0","0","0.00","0.00"
"20:54:56","77.1","65.2","66.7","30.20","114","0","1.2","0.00","0.00"
"20:59:59","76.9","65.2","67.1","30.20","114","0.1","1.2","0.00","0.00"
"21:04:57","76.8","65.4","68","30.20","114","0","0","0.00","0.00"
"21:09:56","76.6","65.5","68.6","30.20","114","0.5","2.4","0.00","0.00"
"21:14:56","76.4","65.7","69.4","30.20","114","0.9","3.6","0.00","0.00"
"21:19:59","76.2","65.8","70.2","30.20","114","0.4","2.4","0.00","0.00"
"21:24:58","76.2","66.1","71","30.20","114","0.1","2.3","0.00","0.00"
"21:29:57","76.2","66.1","71","30.20","114","0.4","2.4","0.00","0.00"
"21:34:56","76.2","66.2","71.3","30.20","114","0.4","3.6","0.00","0.00"
"21:39:56","76.2","66.4","71.8","30.20","114","0.3","3.6","0.00","0.00"
"21:44:59","76.3","66.6","72","30.20","114","0.8","3.5","0.00","0.00"
"21:49:58","76.3","66.6","72","30.20","114","0.5","3.6","0.00","0.00"
"21:54:57","76.3","66.6","72","30.20","114","1","3.6","0.00","0.00"
"21:59:56","76.3","66.6","72","30.21","114","0.4","2.4","0.00","0.00"
"22:04:59","76.2","66.5","72","30.21","114","0.3","2.3","0.00","0.00"
"22:09:58","76","66.7","72.8","30.21","114","0","0","0.00","0.00"
"22:14:59","76","66.7","73","30.21","114","0","0","0.00","0.00"
"22:19:58","75.8","66.5","73","30.21","114","0","0","0.00","0.00"
"22:24:57","75.7","66.4","73","30.21","114","0","0","0.00","0.00"
"22:29:56","75.5","66.6","73.9","30.21","114","0","0","0.00","0.00"
"22:34:59","75.3","66.6","74.7","30.21","114","0","1.2","0.00","0.00"
"22:39:59","75","66.5","75","30.21","114","0.2","2.4","0.00","0.00"
"22:44:58","74.9","66.7","75.8","30.21","114","0.2","2.4","0.00","0.00"
"22:49:57","74.7","66.7","76.1","30.21","114","0.1","2.3","0.00","0.00"
"22:54:56","74.5","66.8","77","30.21","114","0.2","2.4","0.00","0.00"
"22:59:56","74.4","66.7","77","30.22","114","0.1","1.2","0.00","0.00"
"23:04:58","74.2","66.6","77.4","30.22","114","0.5","3.6","0.00","0.00"
"23:09:58","73.9","66.6","78","30.22","115","0.1","1.2","0.00","0.00"
"23:14:58","73.6","66.6","78.7","30.22","114","0","1.2","0.00","0.00"
"23:24:56","72.7","66.5","80.8","30.22","114","0","1.2","0.00","0.00"
"23:29:59","72.6","66.7","82","30.22","115","0","1.2","0.00","0.00"
"23:34:58","72.6","67.3","83.6","30.22","114","0.3","2.4","0.00","0.00"
"23:39:58","72.7","67.6","84","30.22","114","0.5","2.4","0.00","0.00"
"23:44:57","73","67.8","83.7","30.22","145","1.3","4.8","0.00","0.00"
"23:49:56","73.2","67.7","83.2","30.22","150","0.9","3.5","0.00","0.00"
"23:54:59","73.2","68","83.6","30.22","149","0.9","3.6","0.00","0.00"
